Flag Weather past 2 weeks in Des Moines, Iowa, U.S.A.

Now
19 °F

Clear.


Feels Like: 8 °F
Forecast: 17 / 38 °F
Wind: 9 mph from East

Location: Des Moines International Airport

Current Time: Nov 28, 2014 at 5:39:08 AM

Latest Report: Nov 28, 2014 at 4:54 AM


Visibility: 10 mi

Pressure: 30.10 "Hg

Humidity: 77%

Dew point: 13 °F

Location of Des MoinesLocation

Historic Weather in Des Moines — Graph

°F

Des Moines temperature yesterday

Maximum temperature yesterday: 21 °F (at 12:54 AM)
Minimum temperature yesterday: 4 °F (at 7:54 AM)
Average temperature yesterday: 12 °F

Past Weeks' High & Low Weather Summary

 TemperatureHumidityPressure
High57 °F (Nov 22, 7:54 PM)97% (Nov 22, 6:54 AM)30.60 "Hg (Nov 22, 6:54 AM)
Low4 °F (Nov 27, 7:54 AM)27% (Nov 25, 2:54 PM)29.34 "Hg (Nov 23, 2:54 PM)
Average26 °F68%30.12 "Hg
* Reported Nov 13 3:54 AM — Nov 28 3:54 AM, Des Moines, Weather by CustomWeather, © 2014

Note: Actual official high and low records may vary slightly from our data, if they occured in-between our weather recording intervals... More about our weather records

Advertising

Des Moines weather history for previous 24 hours

 ConditionsComfort  
Time TempWeatherWind HumidityBarometerVisibility
3:54 AM
Nov 28
20 °FPassing clouds.9 mph78%30.14 "Hg10 mi
2:54 AM20 °FPassing clouds.13 mph74%30.16 "Hg10 mi
1:54 AM18 °FOvercast.15 mph71%30.21 "Hg10 mi
12:54 AM15 °FMostly cloudy.12 mph70%30.27 "Hg10 mi
11:54 PM
Nov 27
14 °FPassing clouds.10 mph67%30.32 "Hg10 mi
10:54 PM15 °FPassing clouds.9 mph64%30.36 "Hg10 mi
9:54 PM15 °FPassing clouds.8 mph61%30.37 "Hg10 mi
8:54 PM14 °FOvercast.8 mph64%30.40 "Hg10 mi
7:54 PM14 °FLight snow. Overcast.7 mph64%30.43 "Hg9 mi
6:54 PM13 °FMostly cloudy.7 mph61%30.44 "Hg10 mi
5:54 PM13 °FOvercast.7 mph59%30.47 "Hg10 mi
4:54 PM14 °FOvercast.8 mph51%30.49 "Hg10 mi
3:54 PM14 °FOvercast.No wind51%30.50 "Hg10 mi
2:54 PM13 °FPartly sunny.No wind51%30.51 "Hg10 mi
1:54 PM14 °FPartly sunny.No wind49%30.52 "Hg10 mi
12:54 PM10 °FOvercast.8 mph58%30.57 "Hg10 mi
11:54 AM10 °FMostly cloudy.9 mph58%30.59 "Hg10 mi
10:54 AM8 °FScattered clouds.7 mph60%30.60 "Hg10 mi
9:54 AM7 °FPassing clouds.8 mph63%30.60 "Hg10 mi
8:54 AM5 °FPassing clouds.7 mph66%30.59 "Hg10 mi
7:54 AM4 °FSunny.9 mph69%30.57 "Hg10 mi
6:54 AM6 °FPassing clouds.10 mph69%30.56 "Hg10 mi
5:54 AM8 °FPassing clouds.13 mph69%30.55 "Hg10 mi
Weather by CustomWeather, © 2014

See weather overviewHow to use our weather pages